Wind_Speed
55 53 57 54 51 47 49 40 39 37 36 27 25 19 12 7 1 6 6 6 5 5 4 7 9 11 15 15 14 17 19 20 22 25 28 30 33 33 34 37 31 25 31 36 39
47 56 60 60 51 52 47 42 38 40 39 33 27 18 13 9 2 5 6 6 5 4 6 6 7 10 14 16 17 19 20 23 25 29 33 36 38 39 42 45 39 38 37 36 35
45 43 57 66 56 44 53 49 34 39 35 35 32 19 15 11 3 2 6 5 6 6 7 6 8 14 17 19 19 19 20 27 32 36 36 38 42 46 47 50 49 46 38 30 28
39 49 46 56 64 49 48 50 46 38 37 36 36 28 16 12 4 5 7 6 8 8 8 6 9 10 13 19 21 24 28 31 35 38 39 43 47 51 54 53 45 38 29 24 23
31 36 50 55 61 60 49 52 52 42 34 40 38 29 17 15 11 11 10 10 8 9 8 10 12 14 14 22 24 29 31 32 38 42 45 48 51 51 51 47 38 31 25 21 20
30 36 39 58 60 63 55 55 54 48 36 41 43 36 24 25 18 17 12 12 13 11 10 12 16 22 18 17 22 26 29 33 39 43 47 52 43 60 57 46 32 26 20 17 16
32 37 34 55 60 65 58 55 56 51 46 37 38 29 31 28 27 18 12 15 16 14 14 15 19 24 16 22 25 26 29 35 40 43 45 51 35 52 55 45 30 24 19 15 15
35 38 41 43 60 71 68 58 57 51 50 38 41 27 29 27 15 19 13 16 17 13 14 15 20 16 20 24 25 27 34 34 36 39 42 51 22 63 50 44 29 22 18 15 14
38 42 45 47 52 73 73 63 59 56 49 41 38 41 31 26 19 20 12 16 20 15 16 16 20 21 22 26 27 32 32 32 39 39 35 31 32 41 42 41 33 24 18 17 13
42 46 50 57 65 75 77 71 60 58 51 40 44 32 32 29 23 12 18 24 23 15 20 18 20 25 23 27 29 29 30 34 39 40 40 44 32 38 44 44 41 31 23 19 17
45 47 47 38 53 71 80 70 59 57 50 45 38 37 34 32 29 20 22 24 25 18 19 16 21 23 22 27 30 29 28 32 39 40 42 42 45 40 52 46 42 40 32 22 23
42 47 28 35 56 71 79 66 57 61 53 51 37 39 30 38 28 23 23 25 29 20 20 16 21 19 23 27 26 27 28 33 38 40 43 48 50 31 49 47 42 42 39 32 25
36 36 26 46 61 67 73 61 60 60 57 45 40 31 27 33 31 28 24 26 22 18 19 17 18 17 24 23 25 27 29 35 37 39 41 45 45 38 42 45 52 48 39 34 30
31 22 36 53 62 63 59 54 63 57 55 43 41 34 24 39 32 28 23 23 16 15 19 20 14 18 23 22 24 28 31 33 37 39 39 42 39 48 29 44 62 57 46 41 37
26 21 45 56 59 53 55 52 59 57 55 46 45 31 27 34 28 30 27 26 16 17 18 18 19 22 18 21 25 29 29 33 37 40 39 36 43 50 17 48 61 59 47 42 41
24 29 54 58 63 57 60 60 55 59 52 48 48 36 28 29 29 27 25 22 17 19 20 20 21 21 20 24 26 26 29 34 36 39 39 33 42 34 16 30 48 49 42 40 40
25 39 59 63 58 59 55 51 57 56 55 52 43 45 35 31 27 24 27 23 17 16 17 21 25 22 23 24 24 24 29 35 37 40 35 35 36 38 37 45 50 51 49 42 41
27 43 63 69 58 59 56 47 40 52 54 51 43 41 37 38 32 29 26 18 15 12 18 19 22 20 23 23 22 24 30 36 39 42 44 41 42 44 45 50 56 59 54 49 47
30 42 70 72 62 62 59 58 55 49 48 51 47 42 35 34 35 31 27 16 14 17 21 21 24 25 21 24 26 25 29 36 38 41 44 47 45 49 49 53 58 61 60 54 50
33 36 74 68 63 64 59 59 52 49 47 52 48 44 37 34 32 22 24 21 19 25 21 22 22 22 24 24 26 25 31 36 39 41 44 49 48 52 54 57 59 64 62 58 55
35 31 74 72 67 65 60 55 48 53 48 48 47 43 47 37 34 26 28 26 24 24 21 20 23 27 27 25 25 26 30 36 38 43 46 48 49 55 58 61 62 65 63 59 54
40 35 65 76 64 68 62 54 51 48 47 52 44 43 41 35 33 29 29 26 24 22 22 21 20 23 24 25 23 28 31 35 39 41 43 46 48 51 55 59 65 66 62 55 52
42 44 59 72 75 68 69 65 55 51 50 47 46 43 43 37 38 38 34 28 24 24 23 17 23 27 25 24 24 26 30 35 39 43 44 49 51 54 57 60 65 63 58 56 57
49 47 45 75 76 69 74 71 65 58 56 54 48 47 43 39 39 36 34 26 25 26 22 19 26 29 25 25 26 29 31 35 40 43 44 49 52 50 55 60 63 60 54 55 60
51 49 51 62 77 77 65 72 71 68 63 60 54 50 49 44 34 37 31 28 28 30 22 23 27 29 25 26 27 30 32 36 39 43 46 49 53 54 58 63 62 57 54 59 65
53 53 53 50 75 81 76 65 72 69 68 63 57 49 47 48 47 38 33 33 33 27 22 26 29 30 26 27 28 30 34 37 39 42 44 49 49 55 58 62 61 55 56 62 70
57 60 56 51 71 80 79 69 66 68 64 66 61 57 50 45 51 41 31 28 37 29 27 29 29 30 25 25 26 30 35 36 38 41 45 49 50 54 59 60 58 54 58 65 72
Wind_Direction
215 219 220 222 224 223 229 225 242 243 239 229 233 222 211 218 157 341 311 297 317 318 331 339 333 323 320 334 343 336 327 328 326 329 326 323 325 326 323 320 314 294 297 292 284
216 222 221 223 229 220 228 227 235 241 240 232 231 207 209 204 183 346 312 283 303 323 321 302 324 339 328 334 335 336 346 344 339 335 328 327 330 330 329 321 316 309 303 296 290
216 217 223 225 220 227 225 222 223 231 235 241 237 214 212 213 182 329 287 270 285 283 328 321 290 315 314 327 345 343 349 345 344 338 334 335 334 331 327 323 318 314 307 297 292
226 220 219 223 219 221 234 223 222 227 231 237 243 230 219 212 221 327 324 281 273 280 311 309 293 320 331 341 340 333 337 336 342 342 339 338 335 332 327 323 320 313 305 303 297
232 227 221 221 220 217 223 228 226 221 224 234 243 229 208 237 282 262 288 277 279 276 278 283 287 289 304 324 331 324 332 337 344 344 342 338 333 335 331 327 323 317 311 309 303
238 230 228 219 219 213 219 229 227 220 218 227 235 236 233 236 265 255 268 285 289 267 276 278 288 304 326 328 323 321 327 335 345 346 343 339 337 336 334 329 324 319 313 307 305
250 239 240 222 222 217 213 223 223 220 219 228 230 219 236 231 237 240 252 278 287 269 272 286 299 312 328 329 335 339 328 338 343 346 347 339 331 345 335 331 330 328 320 307 298
259 249 250 228 224 217 217 220 225 220 217 220 229 225 219 229 255 245 250 278 291 273 273 285 296 312 323 322 325 325 329 337 336 349 355 353 313 336 329 339 333 330 321 302 310
270 264 257 247 239 218 216 216 221 216 211 217 222 241 225 220 242 234 252 274 290 268 269 285 294 309 311 315 319 320 329 333 337 349 356 358 301 328 332 348 346 337 327 307 303
280 280 277 259 232 213 215 214 217 214 209 218 223 222 225 210 228 256 281 277 283 269 265 279 290 300 300 305 316 316 324 333 337 344 349 349 337 348 355 354 353 346 334 317 318
287 290 287 241 211 204 207 209 213 211 204 210 224 214 224 218 212 222 238 271 277 268 273 285 295 299 303 310 317 321 329 338 339 343 345 346 343 2 2 354 350 351 347 326 310
293 301 267 208 190 192 201 201 208 207 206 213 211 217 217 216 216 228 244 263 275 270 279 285 296 295 308 311 318 321 327 337 337 342 347 352 352 348 352 357 347 344 342 340 322
295 300 220 184 183 190 197 199 207 208 209 214 211 198 210 232 229 229 243 264 269 276 284 278 288 299 307 312 316 317 323 332 337 344 348 357 5 325 331 359 356 343 334 329 327
295 278 194 179 178 185 188 197 205 206 211 208 207 202 213 224 226 228 246 259 264 281 291 291 281 295 302 315 312 316 323 332 339 345 350 350 352 346 344 336 349 339 329 322 318
290 233 190 178 178 179 183 193 207 206 205 200 198 207 214 228 223 227 241 253 271 279 286 278 293 304 300 318 314 319 322 332 339 343 346 351 357 358 22 292 332 333 328 316 308
279 211 187 180 176 182 194 195 203 208 210 201 200 212 224 224 224 231 245 253 261 274 282 290 301 290 307 315 317 322 319 330 339 343 347 356 350 356 347 309 319 335 327 316 310
267 204 188 180 187 191 193 200 208 207 208 209 210 214 228 232 221 240 250 251 248 266 281 285 283 289 306 311 320 323 317 327 334 340 345 343 344 340 333 331 337 339 336 333 323
256 204 189 185 187 193 195 191 207 211 209 209 208 211 223 229 224 234 244 231 241 274 296 284 293 286 302 310 325 326 319 328 332 335 335 341 338 342 337 338 340 340 341 335 334
245 206 189 189 195 199 198 196 195 202 205 204 207 207 216 216 219 226 236 223 250 276 293 289 282 290 300 310 319 324 318 325 330 333 334 336 341 339 339 338 338 341 339 335 329
236 213 196 190 195 198 200 202 199 206 210 208 209 209 217 218 221 230 233 250 256 278 285 286 288 297 305 315 316 324 318 323 326 329 333 333 339 335 337 338 339 340 337 334 327
228 225 203 201 196 202 206 213 211 205 204 214 213 212 216 227 234 236 233 250 258 267 278 286 293 294 300 310 318 317 319 315 326 328 332 332 336 335 338 339 338 337 335 334 330
223 225 207 209 196 200 207 199 205 201 209 217 214 216 212 224 228 247 239 246 249 267 270 272 307 308 304 309 317 313 317 320 321 330 330 329 335 334 335 337 336 337 335 333 331
222 220 212 211 203 199 202 201 200 202 208 208 210 210 218 226 238 238 234 254 252 259 258 280 307 313 309 313 316 317 320 321 319 328 331 330 336 333 335 336 336 337 334 334 333
220 216 215 214 211 203 201 203 202 198 201 208 202 211 220 234 225 226 246 246 245 249 261 294 307 311 308 307 315 318 322 318 322 325 328 331 333 330 333 334 336 336 335 333 332
221 215 217 211 214 209 202 204 207 207 210 213 214 219 224 231 226 232 245 237 245 251 266 297 302 314 306 306 310 318 315 316 324 324 325 333 331 331 335 335 337 336 336 334 334
219 215 213 213 210 213 210 207 206 209 213 217 221 224 224 228 235 242 232 239 241 250 275 287 295 307 303 306 311 315 312 318 324 323 325 331 329 331 333 334 337 337 337 337 337
216 215 208 215 210 212 212 206 205 205 211 216 222 227 228 230 230 225 225 239 245 251 270 278 292 300 298 306 311 313 314 318 323 324 329 329 329 332 334 336 338 336 339 339 341
Height
10873 10880 10886 10892 10897 10904 10910 10915 10921 10927 10930 10931 10934 10936 10936 10935 10934 10934 10934 10933 10931 10929 10928 10928 10927 10926 10924 10922 10920 10916 10911 10908 10905 10901 10898 10894 10890 10886 10882 10879 10878 10877 10867 10858 10852
10865 10870 10878 10884 10891 10898 10904 10910 10916 10922 10926 10927 10931 10933 10934 10933 10932 10932 10932 10932 10930 10929 10927 10927 10926 10925 10923 10921 10918 10914 10910 10906 10903 10899 10895 10889 10884 10879 10873 10867 10864 10859 10857 10850 10843
10858 10862 10869 10875 10884 10891 10897 10903 10909 10916 10921 10925 10926 10929 10931 10931 10930 10930 10930 10930 10929 10928 10927 10925 10925 10924 10922 10919 10915 10912 10909 10905 10900 10896 10891 10885 10879 10872 10866 10856 10850 10843 10838 10834 10830
10853 10855 10858 10865 10873 10884 10890 10896 10903 10910 10916 10921 10924 10927 10928 10929 10929 10928 10930 10929 10927 10926 10926 10924 10923 10922 10920 10917 10913 10909 10906 10902 10898 10893 10888 10883 10875 10866 10857 10848 10838 10831 10826 10824 10822
10847 10851 10854 10857 10864 10874 10883 10889 10896 10904 10911 10916 10920 10923 10924 10926 10926 10927 10927 10927 10925 10925 10924 10923 10921 10919 10917 10916 10912 10908 10904 10900 10894 10890 10884 10876 10867 10860 10850 10840 10830 10823 10819 10818 10816
10840 10844 10848 10852 10857 10864 10874 10881 10889 10898 10905 10911 10915 10918 10920 10923 10925 10924 10924 10924 10923 10923 10922 10921 10919 10917 10915 10913 10911 10906 10903 10899 10894 10890 10883 10869 10857 10852 10841 10834 10826 10821 10816 10814 10813
10831 10835 10838 10843 10849 10857 10865 10873 10881 10891 10899 10905 10910 10912 10917 10921 10921 10922 10921 10921 10921 10920 10920 10918 10916 10915 10913 10911 10908 10904 10901 10896 10892 10893 10880 10858 10845 10844 10842 10830 10819 10813 10811 10809 10809
10821 10825 10829 10834 10839 10846 10855 10865 10872 10883 10892 10899 10906 10908 10914 10918 10920 10918 10919 10919 10918 10917 10916 10916 10914 10912 10911 10908 10906 10902 10899 10894 10892 10895 10886 10859 10844 10841 10847 10831 10815 10810 10808 10806 10806
10811 10812 10814 10820 10828 10836 10845 10855 10864 10875 10886 10893 10900 10904 10909 10913 10916 10915 10916 10917 10916 10915 10914 10914 10912 10912 10909 10906 10904 10899 10896 10891 10887 10889 10893 10887 10878 10862 10850 10829 10815 10809 10806 10804 10804
10795 10794 10793 10788 10799 10817 10834 10847 10856 10868 10880 10889 10894 10902 10905 10908 10912 10913 10914 10914 10914 10913 10913 10911 10911 10909 10907 10904 10901 10897 10893 10888 10883 10882 10881 10880 10876 10859 10837 10824 10816 10810 10804 10802 10801
10780 10774 10766 10762 10772 10798 10821 10838 10850 10862 10874 10883 10889 10896 10901 10904 10906 10909 10912 10911 10911 10911 10910 10909 10908 10906 10904 10901 10897 10893 10889 10885 10880 10875 10870 10866 10855 10841 10830 10823 10819 10813 10807 10802 10799
10770 10761 10753 10756 10768 10789 10812 10832 10843 10856 10869 10877 10885 10892 10896 10899 10903 10906 10908 10908 10908 10907 10907 10906 10905 10904 10902 10898 10893 10890 10887 10882 10878 10873 10865 10857 10845 10834 10831 10827 10821 10816 10809 10802 10798
10763 10755 10752 10758 10773 10791 10810 10828 10839 10852 10862 10872 10880 10887 10892 10896 10900 10903 10904 10905 10904 10904 10903 10903 10902 10901 10899 10896 10892 10888 10885 10880 10876 10871 10865 10858 10842 10845 10833 10824 10819 10816 10811 10805 10797
10760 10754 10756 10764 10778 10794 10813 10824 10833 10846 10857 10868 10876 10884 10887 10890 10895 10899 10900 10902 10901 10901 10901 10900 10899 10899 10897 10893 10889 10886 10882 10877 10872 10869 10868 10859 10849 10844 10827 10822 10817 10814 10805 10801 10794
10758 10755 10761 10770 10784 10798 10808 10819 10829 10841 10852 10864 10872 10877 10883 10887 10890 10893 10896 10898 10898 10899 10898 10897 10897 10897 10894 10890 10886 10882 10879 10874 10869 10865 10863 10858 10846 10821 10834 10835 10819 10813 10801 10795 10788
10755 10756 10764 10772 10782 10791 10804 10815 10825 10838 10849 10858 10866 10872 10878 10882 10885 10889 10892 10894 10895 10895 10895 10894 10894 10894 10891 10888 10883 10880 10876 10871 10866 10861 10857 10849 10848 10843 10838 10835 10832 10814 10800 10789 10780
10751 10756 10765 10774 10781 10790 10803 10814 10824 10835 10844 10853 10861 10868 10873 10878 10881 10885 10889 10891 10892 10893 10893 10892 10891 10891 10889 10885 10881 10877 10872 10867 10862 10857 10857 10855 10852 10843 10837 10826 10818 10808 10795 10782 10772
10747 10752 10761 10772 10777 10788 10800 10813 10823 10832 10840 10850 10857 10864 10870 10873 10876 10881 10885 10888 10888 10889 10889 10889 10889 10887 10885 10882 10879 10874 10869 10862 10857 10851 10845 10845 10839 10835 10827 10817 10802 10791 10784 10772 10761
10741 10746 10756 10768 10773 10784 10795 10806 10814 10824 10834 10843 10851 10857 10864 10868 10871 10876 10880 10883 10884 10885 10886 10886 10885 10883 10881 10878 10875 10871 10866 10861 10855 10850 10841 10832 10831 10821 10814 10806 10793 10782 10770 10762 10754
10735 10740 10750 10761 10769 10780 10790 10802 10814 10819 10830 10836 10845 10852 10859 10864 10867 10872 10876 10879 10880 10882 10882 10883 10882 10879 10877 10874 10872 10868 10864 10859 10853 10846 10838 10828 10824 10815 10807 10796 10786 10775 10764 10755 10744
10729 10733 10742 10753 10764 10774 10785 10794 10806 10816 10824 10831 10840 10847 10854 10860 10863 10868 10872 10875 10877 10878 10878 10879 10878 10876 10873 10871 10868 10864 10860 10855 10849 10842 10834 10826 10819 10805 10796 10786 10778 10769 10756 10748 10736
10721 10727 10735 10744 10758 10768 10780 10790 10799 10809 10818 10827 10834 10842 10848 10854 10859 10864 10868 10871 10873 10874 10874 10874 10874 10872 10868 10867 10864 10861 10857 10851 10844 10840 10834 10824 10818 10806 10796 10786 10773 10762 10751 10742 10732
10712 10719 10725 10735 10748 10761 10772 10782 10794 10804 10813 10820 10828 10836 10843 10849 10855 10859 10863 10866 10869 10869 10869 10870 10870 10868 10865 10863 10860 10857 10851 10846 10841 10834 10829 10818 10812 10799 10790 10781 10771 10757 10745 10734 10724
10701 10709 10717 10726 10739 10751 10764 10776 10786 10797 10806 10813 10821 10829 10838 10844 10850 10854 10858 10862 10864 10864 10865 10866 10865 10863 10861 10859 10856 10852 10847 10842 10837 10831 10824 10815 10807 10800 10790 10778 10766 10754 10742 10729 10719
10690 10700 10710 10717 10727 10743 10756 10767 10777 10789 10798 10807 10816 10824 10832 10837 10843 10848 10854 10857 10859 10859 10861 10861 10860 10858 10856 10854 10852 10848 10844 10839 10833 10827 10818 10811 10801 10791 10781 10771 10760 10748 10736 10724 10710
10681 10690 10699 10708 10719 10728 10745 10757 10769 10781 10791 10799 10807 10816 10825 10832 10838 10844 10850 10852 10853 10855 10856 10857 10856 10854 10852 10850 10847 10844 10840 10835 10829 10823 10816 10807 10799 10788 10777 10766 10753 10742 10731 10717 10701
10670 10676 10687 10696 10706 10720 10732 10749 10760 10773 10783 10791 10799 10809 10818 10825 10832 10839 10843 10847 10849 10850 10852 10852 10851 10849 10848 10846 10843 10839 10836 10831 10825 10818 10810 10802 10793 10784 10772 10760 10747 10736 10724 10710 10695